Flag for Germany Weather past 2 weeks in Hürth, North Rhine-Westphalia, Germany

Now
55 °F

Cool.


Feels Like: 55 °F
Forecast: 48 / 69 °F
Wind: 2 mph from Southeast

Location: Noervenich

Current Time: May 30, 2015 at 8:47:02 PM

Latest Report: May 30, 2015 at 7:20 PM


Visibility: N/A

Pressure: 30.04 "Hg

Humidity: 67%

Dew point: 45 °F

Location of HürthLocation

Historic Weather in Hürth — Graph

°F

Hürth temperature yesterday

Maximum temperature yesterday: 63 °F (at 4:20 PM)
Minimum temperature yesterday: 48 °F (at 6:20 AM)
Average temperature yesterday: 56 °F

Past Weeks' High & Low Weather Summary

 TemperatureHumidityPressure
High70 °F (May 18, 3:20 PM)100% (May 21, 5:20 AM)30.33 "Hg (May 21, 5:20 AM)
Low39 °F (May 21, 5:20 AM)35% (May 18, 4:20 PM)29.65 "Hg (May 18, 7:20 PM)
Average55 °F67%30.06 "Hg
* Reported May 15 7:20 PM — May 30 7:20 PM, Hürth, Weather by CustomWeather, © 2015

Note: Actual official high and low records may vary slightly from our data, if they occured in-between our weather recording intervals... More about our weather records

Advertising

Hürth weather history for previous 24 hours

 ConditionsComfort  
Time TempWeatherWind HumidityBarometerVisibility
7:20 PM
Sat, May 30
55 °FCool.2 mph67%30.04 "HgN/A
6:20 PM55 °FCool.1 mph63%30.04 "Hg6 mi
5:20 PM55 °FCool.7 mph63%30.04 "HgN/A
4:20 PM54 °FCool.5 mph63%30.01 "HgN/A
3:20 PM52 °FCool.7 mph67%30.01 "HgN/A
2:20 PM59 °FRefreshingly cool.15 mph45%29.98 "HgN/A
1:20 PM59 °FRefreshingly cool.14 mph51%29.95 "HgN/A
12:20 PM57 °FRefreshingly cool.14 mph51%29.95 "HgN/A
11:20 AM55 °FRefreshingly cool.12 mph55%29.95 "HgN/A
10:20 AM55 °FRefreshingly cool.10 mph59%29.92 "HgN/A
9:20 AM52 °FCool.10 mph72%29.92 "HgN/A
8:20 AM52 °FCool.10 mph77%29.89 "HgN/A
7:20 AM50 °FCool.8 mph88%29.89 "HgN/A
6:20 AM48 °FCool.8 mph94%29.86 "Hg5 mi
5:20 AM48 °FPassing clouds.9 mph94%29.86 "HgN/A
4:20 AM48 °FPassing clouds.6 mph94%29.83 "HgN/A
3:20 AM48 °FPartly cloudy.6 mph94%29.83 "HgN/A
2:20 AM48 °FSprinkles. Partly cloudy.7 mph94%29.80 "HgN/A
1:20 AM48 °FPartly cloudy.1 mph94%29.80 "HgN/A
12:20 AM48 °FLight rain. Partly cloudy.6 mph94%29.80 "HgN/A
11:20 PM
Fri, May 29
48 °FLight rain. Partly cloudy.8 mph94%29.83 "Hg4 mi
10:20 PM57 °FLight rain. Partly sunny.9 mph63%29.77 "HgN/A
9:20 PM59 °FPartly sunny.9 mph51%29.77 "HgN/A
8:20 PM59 °FPartly sunny.14 mph51%29.77 "HgN/A
Weather by CustomWeather, © 2015

See weather overviewHow to use our weather pages